User: anonymous   Login
Location: Caltech
(34.1382°N, 118.1253°W)
Time: 15:45:03
(UTC-08:00)
Language:

Gbstr 26 Del rocket - Orbit

View from above orbital plane
View from above orbital plane
View from above satellite
View from above satellite

Ground track
Ground track

The orbit data is extracted from the following two-line orbital elements,

1 25876U 99041E   16044.48801452  .00000361  00000-0  10413-3 0  9990
2 25876  51.7639  88.4049 0533794  41.2211 322.7774 14.03677004845838
Epoch (UTC): 13 February 2016 11:42:44
Eccentricity: 0.0533794
inclination: 51.7639°
perigee height: 493 km
apogee height: 1268 km
right ascension of ascending node: 88.4049°
argument of perigee: 41.2211°
revolutions per day: 14.03677004
mean anomaly at epoch: 322.7774°
orbit number at epoch: 84583

The dashed part of the orbit path shows where the satellite is in the earth's shadow,  

DLR